2023/04/28 00:00:00,29.1,10.3
2023/04/28 00:10:00,27.1,10.1
2023/04/28 00:20:00,24.9,10.1
2023/04/28 00:30:00,24.0, 9.4
2023/04/28 00:40:00,24.6, 9.2
2023/04/28 00:50:00,25.4, 9.6
2023/04/28 01:00:00,23.4, 9.2
2023/04/28 01:10:00,24.7, 9.6
2023/04/28 01:20:00,23.8, 9.8
2023/04/28 01:30:00,23.7, 9.4
2023/04/28 01:40:00,24.3, 9.5
2023/04/28 01:50:00,24.2, 9.5
2023/04/28 02:00:00,23.3, 9.4
2023/04/28 02:10:00,24.2, 9.0
2023/04/28 02:20:00,22.1, 8.3
2023/04/28 02:30:00,23.6, 7.8
2023/04/28 02:40:00,24.8, 7.4
2023/04/28 02:50:00,25.1, 7.4
2023/04/28 03:00:00,25.7, 7.2
2023/04/28 03:10:00,25.4, 7.6
2023/04/28 03:20:00,25.4, 7.6
2023/04/28 03:30:00,25.4, 8.6
2023/04/28 03:40:00,23.3, 8.4
2023/04/28 03:50:00,22.3, 9.4
2023/04/28 04:00:00,17.6, 8.3
2023/04/28 04:10:00,18.7, 9.3
2023/04/28 04:20:00,20.7, 8.0
2023/04/28 04:30:00,18.4, 8.9
2023/04/28 04:40:00,16.2, 8.5
2023/04/28 04:50:00,21.9, 9.0
2023/04/28 05:00:00,22.4, 9.5
2023/04/28 05:10:00,21.7, 8.9
2023/04/28 05:20:00,22.2, 8.4
2023/04/28 05:30:00,20.9, 8.9
2023/04/28 05:40:00,23.7, 9.3
2023/04/28 05:50:00,23.3, 9.3
2023/04/28 06:00:00,23.5, 9.7
2023/04/28 06:10:00,20.5,10.2
2023/04/28 06:20:00,18.3,10.6
2023/04/28 06:30:00,20.1,10.9
2023/04/28 06:40:00,18.9,11.0
2023/04/28 06:50:00,18.9,11.4
2023/04/28 07:00:00,12.3,12.4
2023/04/28 07:10:00, 0.7,13.1
2023/04/28 07:20:00, 0.1,13.7
2023/04/28 07:30:00, 0.0,14.2
2023/04/28 07:40:00, 0.1,14.9
2023/04/28 07:50:00, 0.1,15.5
2023/04/28 08:00:00, 0.2,16.2
2023/04/28 08:10:00, 0.2,16.9
2023/04/28 08:20:00, 0.1,17.7
2023/04/28 08:30:00, 0.3,17.6
2023/04/28 08:40:00, 0.5,18.6
2023/04/28 08:50:00, 0.1,19.4
2023/04/28 09:00:00, 0.0,20.2
2023/04/28 09:10:00, 0.0,21.2
2023/04/28 09:20:00, 0.0,21.4
2023/04/28 09:30:00, 0.0,21.7
2023/04/28 09:40:00, 0.1,21.5
2023/04/28 09:50:00, 0.5,22.3
2023/04/28 10:00:00,11.8,22.2
2023/04/28 10:10:00,10.6,23.3
2023/04/28 10:20:00,---,24.3
2023/04/28 10:30:00, 5.9,22.9
2023/04/28 10:40:00,31.7,22.3
2023/04/28 10:50:00,30.9,22.2
2023/04/28 11:00:00, 3.9,23.3
2023/04/28 11:10:00,10.6,23.3
2023/04/28 11:20:00, 8.8,22.7
2023/04/28 11:30:00, 9.3,23.4
2023/04/28 11:40:00,19.3,23.6
2023/04/28 11:50:00,10.4,23.7
2023/04/28 12:00:00, 7.5,23.0
2023/04/28 12:10:00, 7.2,25.3
2023/04/28 12:20:00, 4.6,24.7
2023/04/28 12:30:00, 3.1,24.5
2023/04/28 12:40:00, 2.6,24.0
2023/04/28 12:50:00, 2.6,24.7
2023/04/28 13:00:00, 2.8,24.2
2023/04/28 13:10:00, 2.5,24.7
2023/04/28 13:20:00, 3.1,25.1
2023/04/28 13:30:00, 4.0,24.2
2023/04/28 13:40:00, 0.0,24.9
2023/04/28 13:50:00, 5.9,25.3
2023/04/28 14:00:00, 6.4,26.0
2023/04/28 14:10:00, 5.8,25.6
2023/04/28 14:20:00, 4.6,25.9
2023/04/28 14:30:00, 7.7,25.5
2023/04/28 14:40:00, 8.3,26.2
2023/04/28 14:50:00, 8.1,26.3
2023/04/28 15:00:00, 7.8,26.4
2023/04/28 15:10:00, 5.7,27.0
2023/04/28 15:20:00, 3.3,26.7
2023/04/28 15:30:00, 1.6,24.9
2023/04/28 15:40:00, 1.2,26.1
2023/04/28 15:50:00, 1.5,26.7
2023/04/28 16:00:00, 1.3,26.5
2023/04/28 16:10:00, 0.9,26.8
2023/04/28 16:20:00, 1.0,25.6
2023/04/28 16:30:00, 1.0,24.6
2023/04/28 16:40:00, 1.0,24.7
2023/04/28 16:50:00, 1.2,24.5
2023/04/28 17:00:00, 1.1,24.7
2023/04/28 17:10:00, 1.1,24.1
2023/04/28 17:20:00, 0.8,24.3
2023/04/28 17:30:00, 0.7,24.8
2023/04/28 17:40:00, 0.7,23.1
2023/04/28 17:50:00, 0.6,22.4
2023/04/28 18:00:00, 0.4,22.3
2023/04/28 18:10:00, 0.1,22.3
2023/04/28 18:20:00, 0.0,20.9
2023/04/28 18:30:00, 0.0,19.7
2023/04/28 18:40:00, 0.0,19.1
2023/04/28 18:50:00, 0.0,18.4
2023/04/28 19:00:00, 0.0,16.3
2023/04/28 19:10:00, 0.0,15.4
2023/04/28 19:20:00, 0.0,15.2
2023/04/28 19:30:00, 0.0,14.1
2023/04/28 19:40:00, 0.0,13.4
2023/04/28 19:50:00, 0.0,13.0
2023/04/28 20:00:00, 0.0,12.4
2023/04/28 20:10:00, 0.0,12.2
2023/04/28 20:20:00, 0.0,12.3
2023/04/28 20:30:00, 0.0,13.1
2023/04/28 20:40:00, 0.0,13.0
2023/04/28 20:50:00, 0.0,12.4
2023/04/28 21:00:00, 0.0,12.3
2023/04/28 21:10:00, 0.0,12.7
2023/04/28 21:20:00, 0.0,13.1
2023/04/28 21:30:00, 0.0,14.4
2023/04/28 21:40:00, 0.0,14.1
2023/04/28 21:50:00, 0.0,13.7
2023/04/28 22:00:00, 0.0,13.6
2023/04/28 22:10:00, 0.0,13.6
2023/04/28 22:20:00, 0.0,13.8
2023/04/28 22:30:00, 0.0,13.4
2023/04/28 22:40:00, 0.0,13.5
2023/04/28 22:50:00, 0.0,13.4
2023/04/28 23:00:00, 0.0,13.2
2023/04/28 23:10:00, 0.0,12.4
2023/04/28 23:20:00, 0.0,12.0
2023/04/28 23:30:00, 0.0,12.1
2023/04/28 23:40:00, 0.0,12.4
2023/04/28 23:50:00, 0.0,11.2
